Alice Springs, Australia

12:39 AM ACST on October 18, 2019 (GMT +0930)
Alice Springs

Weather History for YBAS - August, 2019

Change the Weather History Date:

Tuesday, August 13, 2019

  Actual Average Record
Temperature  
Mean Temperature 50 °F -  
Max Temperature 66 °F 75 °F 87 °F (2017)
Min Temperature 34 °F 46 °F 29 °F (2012)
Degree Days  
Heating Degree Days 15    
Moisture  
Dew Point 31 °F    
Average Humidity 47    
Maximum Humidity 75    
Minimum Humidity 16    
Precipitation  
Precipitation 0.00 in 0.01 in - ()
Sea Level Pressure  
Sea Level Pressure 30.26 in    
Wind  
Wind Speed 4 mph ()    
Max Wind Speed 12 mph    
Max Gust Speed -    
Visibility 6.2 miles    
Events      
Averages and records for this station are not official NWS values.
T = Trace of Precipitation, MM = Missing Value Source: Averaged Metar Reports

Daily Weather History Graph

Daily Weather History Graph

Search for Another Location

Airport or City:

Astronomy

Aug. 13, 2019 Rise Set
Actual Time 7:02 AM ACST 6:16 PM ACST
Civil Twilight 6:39 AM ACST 6:39 PM ACST
Nautical Twilight 6:12 AM ACST 7:06 PM ACST
Astronomical Twilight 5:45 AM ACST 7:33 PM ACST
Moon 4:19 PM ACST (8/13) 5:18 AM ACST (8/13)
Length of Visible Light 12h 00m
Length of Day
11h 14m
Waxing Gibbous, 95% of the Moon is Illuminated
Aug 13
Waxing Gibbous
Aug 15
Full
Aug 24
Last Quarter
Aug 30
New
Sep 6
First Quarter

Hourly Weather History & Observations

Time (ACST) Temp. Windchill Dew Point Humidity Pressure Visibility Wind Dir Wind Speed Gust Speed Precip Events Conditions
12:00 AM 43 °F - 30 °F 47% 30.28 in - Calm Calm - -   Clear
12:00 AM 42.8 °F - 30.2 °F 61% 30.30 in 6.2 mi Calm Calm - N/A   Unknown
12:30 AM 43 °F - 28 °F 43% 30.28 in - SSE 2.3 mph - -  
12:30 AM 42.8 °F - 28.4 °F 57% 30.30 in 6.2 mi SSE 2.3 mph - N/A   Unknown
1:30 AM 41.0 °F - 28.4 °F 61% 30.27 in 6.2 mi Calm Calm - N/A   Unknown
2:00 AM 39.2 °F - 26.6 °F 61% 30.27 in 6.2 mi Calm Calm - N/A   Unknown
2:30 AM 41 °F - 31 °F 56% 30.25 in - North 4.6 mph - -  
2:30 AM 41.0 °F 38.0 °F 30.2 °F 65% 30.27 in 6.2 mi North 4.6 mph - N/A   Unknown
3:00 AM 39 °F - 28 °F 52% 30.25 in - North 3.5 mph - -   Clear
3:00 AM 39.2 °F 37.0 °F 28.4 °F 65% 30.24 in 6.2 mi North 3.5 mph - N/A   Unknown
3:30 AM 38 °F - 29 °F 61% 30.25 in - NE 3.5 mph - -  
3:30 AM 39.2 °F 37.0 °F 28.4 °F 65% 30.24 in 6.2 mi NE 3.5 mph - N/A   Unknown
4:00 AM 37.4 °F - 28.4 °F 70% 30.24 in 6.2 mi Calm Calm - N/A   Unknown
4:30 AM 35.6 °F - 26.6 °F 70% 30.24 in 6.2 mi NW 2.3 mph - N/A   Unknown
5:30 AM 35 °F - 26 °F 60% 30.25 in - NW 3.5 mph - -  
5:30 AM 35.6 °F 32.8 °F 26.6 °F 70% 30.27 in 6.2 mi NW 3.5 mph - N/A   Unknown
6:00 AM 35 °F - 27 °F 62% 30.26 in - WNW 4.6 mph - -   Clear
6:00 AM 33.8 °F 29.6 °F 26.6 °F 75% 30.27 in 6.2 mi WNW 4.6 mph - N/A   Unknown
6:30 AM 35 °F - 26 °F 60% 30.27 in - West 5.8 mph - -  
6:30 AM 35.6 °F 30.7 °F 26.6 °F 70% 30.27 in 6.2 mi West 5.8 mph - N/A   Unknown
7:00 AM 35.6 °F 30.7 °F 28.4 °F 75% 30.30 in 6.2 mi West 5.8 mph - N/A   Unknown
7:30 AM 35.6 °F 31.7 °F 26.6 °F 70% 30.30 in 6.2 mi WNW 4.6 mph - N/A   Unknown
8:00 AM 42.8 °F 41.1 °F 30.2 °F 61% 30.30 in 6.2 mi WNW 3.5 mph - N/A   Unknown
8:30 AM 46 °F - 33 °F 49% 30.32 in - West 4.6 mph - -  
8:30 AM 46.4 °F 44.3 °F 33.8 °F 62% 30.33 in 6.2 mi West 4.6 mph - N/A   Unknown
9:00 AM 50 °F - 35 °F 44% 30.32 in - Calm Calm - -   Clear
9:00 AM 50.0 °F - 35.6 °F 58% 30.33 in - Calm Calm - N/A   Clear
9:30 AM 54 °F - 38 °F 43% 30.32 in - ENE 5.8 mph - -  
9:30 AM 53.6 °F - 37.4 °F 54% 30.33 in 6.2 mi ENE 5.8 mph - N/A   Unknown
10:30 AM 55.4 °F - 37.4 °F 51% 30.33 in - ESE 11.5 mph - N/A   Clear
11:00 AM 57.2 °F - 37.4 °F 48% 30.33 in - East 10.4 mph - N/A   Clear
11:30 AM 59 °F - 37 °F 32% 30.30 in - East 8.1 mph - -  
11:30 AM 59.0 °F - 37.4 °F 45% 30.30 in - East 8.1 mph - N/A   Clear
12:00 PM 60 °F - 38 °F 31% 30.28 in - East 5.8 mph - -   Clear
12:00 PM 60.8 °F - 37.4 °F 42% 30.30 in 6.2 mi East 5.8 mph - N/A   Unknown
12:30 PM 61 °F - 37 °F 29% 30.26 in - ESE 6.9 mph - -  
12:30 PM 60.8 °F - 37.4 °F 42% 30.27 in 6.2 mi ESE 6.9 mph - N/A   Unknown
1:30 PM 64.4 °F - 35.6 °F 34% 30.24 in 6.2 mi ENE 6.9 mph - N/A   Unknown
2:30 PM 65 °F - 32 °F 18% 30.21 in - ESE 8.1 mph - -  
2:30 PM 64.4 °F - 32.0 °F 30% 30.21 in 6.2 mi ESE 8.1 mph - N/A   Unknown
3:00 PM 65 °F - 32 °F 18% 30.20 in - SE 5.8 mph - -   Clear
3:00 PM 66.2 °F - 32.0 °F 28% 30.21 in 6.2 mi SE 5.8 mph - N/A   Unknown
3:30 PM 66.2 °F - 33.8 °F 30% 30.18 in 6.2 mi South 5.8 mph - N/A   Unknown
4:00 PM 66.2 °F - 32.0 °F 28% 30.18 in 6.2 mi ENE 11.5 mph - N/A   Unknown
4:30 PM 66.2 °F - 30.2 °F 26% 30.18 in 6.2 mi ESE 9.2 mph - N/A   Unknown
5:30 PM 65 °F - 31 °F 17% 30.19 in - East 9.2 mph - -  
5:30 PM 64.4 °F - 32.0 °F 30% 30.21 in 6.2 mi East 9.2 mph - N/A   Unknown
6:00 PM 64 °F - 29 °F 16% 30.20 in - East 10.4 mph - -   Clear
6:30 PM 60.8 °F - 28.4 °F 29% 30.21 in 6.2 mi East 6.9 mph - N/A   Unknown
7:30 PM 59.0 °F - 28.4 °F 31% 30.24 in 6.2 mi ESE 6.9 mph - N/A   Unknown
8:00 PM 57.2 °F - 28.4 °F 33% 30.24 in 6.2 mi ESE 6.9 mph - N/A   Unknown
8:30 PM 54 °F - 29 °F 26% 30.25 in - ESE 6.9 mph - -  
8:30 PM 53.6 °F - 28.4 °F 38% 30.27 in 6.2 mi ESE 6.9 mph - N/A   Unknown
9:00 PM 53 °F - 30 °F 29% 30.26 in - ESE 5.8 mph - -   Clear
9:00 PM 53.6 °F - 30.2 °F 41% 30.27 in 6.2 mi ESE 5.8 mph - N/A   Unknown
9:30 PM 51.8 °F - 30.2 °F 44% 30.27 in 6.2 mi East 5.8 mph - N/A   Unknown
10:00 PM 50.0 °F - 30.2 °F 47% 30.27 in 6.2 mi NNE 4.6 mph - N/A   Unknown
10:30 PM 48.2 °F - 28.4 °F 46% 30.27 in 6.2 mi NE 4.6 mph - N/A   Unknown
11:00 PM 46.4 °F 43.5 °F 28.4 °F 50% 30.27 in 6.2 mi East 5.8 mph - N/A   Unknown
11:30 PM 45 °F - 27 °F 36% 30.26 in - SSE 4.6 mph - -